THORAD AGENA D DEB, 42515

Orbit data source: Space-Track

THORAD AGENA D DEB, 42515 is space debris in SSO originally from a launch on Wed, 08 Apr 1970 UTC launched from the Air Force Western Test Range (AFWTR). Debris objects in space refer to the collection of defunct objects orbiting the Earth. Examples of debris include non-operational satellites, rocket bodies, and fragments generated from explosions, collisions, or faulty payload assembly.

Loading next visibility...
Identifier
42515, 1970-025RV
Orbit
SSO
Country
Flag of USUS
Related business
Manufacturer
Unknown
Mission
Spacecraft
Bus & Motor
Unknown
Mass
Unknown
Launch date (UTC)
1970-04-08 (56 years ago)
Launch vehicle
Unknown
Launch site
Air Force Western Test Range (AFWTR)
Object type
Payload
Rocket body
Debris
Shape & HBR
Unknown shape, 0.1 m
Radar Cross Section
Small (<0.1 m²)

Expand to show TLE details & history
Last TLE update: 1 day ago

TLE from 1 day ago
0 THORAD AGENA D DEB
1 42515U 70025RV  25348.10336889  .00000136  00000-0  27186-3 0  9998
2 42515  99.3783 284.9305 0040576 209.7617 150.1211 13.51437437594729
Epoch: 2025-12-14T02:28Z
TLE epoch observation values (Epoch: 2025-12-14T02:28:51.072Z)
Latitude
0.00004°
Longitude
164.6966°
Altitude
1,096.002 km
Speed
7.291 km/s
True Right ascension
18h 59m 43s
True Declination
0° 00' 00"
Sunlit
Object was in daylight at epoch
Visualization orbit readout
Latitude
Unknown
Longitude
Unknown
Altitude
Unknown
Speed
Unknown
Apparent Right ascension
Unknown
Apparent Declination
Unknown
Sunlit
N/A
Visualization observer readout
Local Sidereal Time
07:45:09
Azimuth
Unknown
Elevation
Unknown
Doppler factor
Unknown
Orbital elements
Apogee altitude
1,094.456 km
Perigee altitude
1,034.059 km
Semi-major axis
7,442.395 km
Eccentricity
0.00406
Inclination
99.3783°
RAAN
284.9305°
Arg. of periapsis
209.7617°
True anomaly
150.35172°
Mean anomaly
150.1211°
Eccentric anomaly
150.23651°
Mean motion
3.38045 °/min
Orbital period
106.49 mins
BSTAR
0.00027186

Documentation

Showing up to 5 results
|